Regional Weather Roundup
Issued by NWS

Home | Current Version | Previous Version | Graphics & Text | Print | Product List | Glossary On
Versions: 1 2 3 4 5 6 7 8 9 10 11 12 13 14 15 16 17 18 19 20 21 22 23 24 25 26 27 28 29 30 31 32 33 34 35 36 37 38 39 40 41 42 43 44 45 46 47 48 49 50
000
ASUS44 KMEG 310900
RWRTN
TENNESSEE HOURLY STATE WEATHER ROUNDUP
NATIONAL WEATHER SERVICE MEMPHIS TN
400 AM CDT SUN AUG 31 2014

TNZ002-004-019-021-049-052-054-088>092-311000-
WEST TENNESSEE

CITY           SKY/WX    TMP DP  RH WIND       PRES   REMARKS
MEMPHIS INTL   CLOUDY    75  72  90 S8        29.97S
NWS MEMPHIS      N/A     73 N/A N/A MISG        N/A
JACKSON        LGT RAIN  72  70  93 S7        29.99F
DYERSBURG      CLOUDY    72  63  73 SE7       29.98F
PARIS          CLOUDY    70  68  94 S7        30.01F
$$

TNZ008-025-027-028-033-062-065-066-311000-
NORTH MIDDLE TENNESSEE

CITY           SKY/WX    TMP DP  RH WIND       PRES   REMARKS
NASHVILLE      RAIN      71  70  96 SE6       30.07S FOG
CLARKSVILLE    CLOUDY    72  70  93 SE6       30.03S
COOKEVILLE     CLEAR     70  68  94 CALM      30.10S
CROSSVILLE     PTCLDY    71  66  84 S5        30.16S
$$

TNZ061-075-076-078-094-096-097-311000-
SOUTH MIDDLE TENNESSEE

CITY           SKY/WX    TMP DP  RH WIND       PRES   REMARKS
SHELBYVILLE    MOCLDY    72  70  94 SE3       30.10R
$$

TNZ017-018-042-046-047-311000-
NORTHEAST TENNESSEE

CITY           SKY/WX    TMP DP  RH WIND       PRES   REMARKS
TRI CITIES     LGT RAIN  69  66  90 CALM      30.18S
$$

TNZ012-013-036-069-073-074-311000-
CENTRAL EAST TENNESSEE

CITY           SKY/WX    TMP DP  RH WIND       PRES   REMARKS
KNOXVILLE      MOCLDY    69  68  96 N3        30.13R
OAK RIDGE      MOCLDY    71  69  93 CALM      30.15S
$$

TNZ083-085-099-311000-
SOUTHEAST TENNESSEE

CITY           SKY/WX    TMP DP  RH WIND       PRES   REMARKS
CHATTANOOGA    CLEAR     71  68  90 CALM      30.14R
$$

SKY/WX REPORTED AS FAIR MEANS FEW OR NO CLOUDS BELOW
12 THOUSAND FEET.




USA.gov is the U.S. government's official web portal to all federal, state and local government web resources and services.